(299974) = 2006 TQ102 = 2008 AE78

Discovered at Kitt Peak on 2006-10-15 by Spacewatch.

Orbit

Orbit type: Main Belt

Note: WebGL enabled browser required.

epoch2024-03-31.0
epoch JD2460400.5
perihelion date2022-06-03.04036
perihelion JD2459733.54036
argument of perihelion (°)351.39079
ascending node (°)16.85120
inclination (°)2.80130
eccentricity0.0552383
perihelion distance (AU)2.8812977
Tisserand w.r.t. Jupiter3.2
ΔV w.r.t. Earth (km/sec)10.6
semimajor axis (AU)3.0497612
mean anomaly (°)123.42543
mean daily motion (°/day)0.18505680
aphelion distance (AU)3.218
period (years)5.33
P-vector [x]0.98961958
P-vector [y]0.13459215
P-vector [z]0.05037893
Q-vector [x]-0.14301177
Q-vector [y]0.88774704
Q-vector [z]0.43755322
absolute magnitude16.38
phase slope0.15
uncertainty0
referenceMPEC 2024-E11
observations used301
oppositions14
arc length (days)6789
first opposition used2005
last opposition used2024
residual rms (arc-secs)0.82
perturbers coarse indicatorM-v
perturbers precise indicator003Ek
first observation date used2005-07-11.0
last observation date used2024-02-11.0
computer nameMPCLINUX
JD of orbit computation2456789.325237
perihelion JD uncertainty (days)2.7113E-04
argument of perihelion uncertainty (°)1.1149E-04
ascending node uncertainty (°)9.8881E-05
inclination uncertainty (°)8.0761E-06
eccentricity uncertainty 8.5298E-08
perihelion distance uncertainty (AU)2.7777E-07
Minimum Orbit Intersection Distances (in AU)
for orbit epoch: 2460400.5, reference: E2024-G95
Mercury2.51261
Venus2.1563
Earth1.87993
Mars1.44104
Jupiter2.06996
Saturn5.9998
Uranus15.2334
Neptune26.9233

Observations

305 total observations over interval: 2005 07 11.34168 – 2024 02 11.518816
These data are available for download (format description).

Date (UT) J2000 RA J2000 Dec Magn Location Ref
2005 07 11.34168 20 46 55.16 -22 06 47.5 21.2 V 691 – Steward Observatory, Kitt Peak-Spacewatch MPS 237613
2005 07 11.36246 20 46 54.19 -22 06 51.8 20.8 V 691 – Steward Observatory, Kitt Peak-Spacewatch MPS 237613
2005 07 11.37984 20 46 53.47 -22 06 54.3 21.0 V 691 – Steward Observatory, Kitt Peak-Spacewatch MPS 237613
2006 09 27.29227 02 43 34.78 +16 49 42.6 20.9 V G96 – Mt. Lemmon Survey MPS 237613
2006 09 27.29956 02 43 34.64 +16 49 42.4 21.1 V G96 – Mt. Lemmon Survey MPS 237613
2006 09 27.30707 02 43 34.46 +16 49 42.3 20.8 V G96 – Mt. Lemmon Survey MPS 237613
2006 09 27.31454 02 43 34.24 +16 49 41.9 21.0 V G96 – Mt. Lemmon Survey MPS 237613
2006 10 15.28711 02 33 11.88 +16 21 40.7   691 – Steward Observatory, Kitt Peak-Spacewatch MPS 184237
2006 10 15.30446 02 33 11.06 +16 21 37.5   691 – Steward Observatory, Kitt Peak-Spacewatch MPS 184237
2006 10 15.32181 02 33 10.28 +16 21 34.9   691 – Steward Observatory, Kitt Peak-Spacewatch MPS 184237
2006 10 19.27828 02 30 09.48 +16 11 27.6 20.5 V 691 – Steward Observatory, Kitt Peak-Spacewatch MPS 184237
2006 10 19.29567 02 30 08.65 +16 11 24.5 20.5 V 691 – Steward Observatory, Kitt Peak-Spacewatch MPS 184237
2006 10 19.31306 02 30 07.80 +16 11 22.0 20.6 V 691 – Steward Observatory, Kitt Peak-Spacewatch MPS 184237
2006 10 28.27154 02 22 47.02 +15 44 35.8 21.0 V 691 – Steward Observatory, Kitt Peak-Spacewatch MPS 237613
2006 10 28.29236 02 22 45.95 +15 44 31.7 20.7 V 691 – Steward Observatory, Kitt Peak-Spacewatch MPS 237613
2006 10 28.30975 02 22 45.03 +15 44 28.8 20.3 V 691 – Steward Observatory, Kitt Peak-Spacewatch MPS 237613
2008 01 12.32363 08 46 21.88 +22 01 40.2   691 – Steward Observatory, Kitt Peak-Spacewatch MPS 234444
2008 01 12.34128 08 46 21.07 +22 01 43.8   691 – Steward Observatory, Kitt Peak-Spacewatch MPS 234444
2008 01 12.35894 08 46 20.20 +22 01 47.6   691 – Steward Observatory, Kitt Peak-Spacewatch MPS 234444
2008 01 16.28354 08 43 08.51 +22 14 33.0 21.0 V 691 – Steward Observatory, Kitt Peak-Spacewatch MPS 234444
2008 01 16.30166 08 43 07.53 +22 14 37.1 20.8 V 691 – Steward Observatory, Kitt Peak-Spacewatch MPS 234444
2008 01 16.32002 08 43 06.59 +22 14 40.8 20.7 V 691 – Steward Observatory, Kitt Peak-Spacewatch MPS 234444
2008 01 20.29781 08 39 42.79 +22 27 23.7 20.5 V 691 – Steward Observatory, Kitt Peak-Spacewatch MPS 239492
2008 01 20.31596 08 39 41.79 +22 27 27.0 20.6 V 691 – Steward Observatory, Kitt Peak-Spacewatch MPS 239492
2008 01 20.33411 08 39 40.88 +22 27 31.3 20.5 V 691 – Steward Observatory, Kitt Peak-Spacewatch MPS 239492
2009 03 31.34799 13 22 31.87 -08 48 24.3 21.3 V G96 – Mt. Lemmon Survey MPS 283755
2009 03 31.35980 13 22 31.29 -08 48 22.7 20.9 V G96 – Mt. Lemmon Survey MPS 283755
2009 03 31.37162 13 22 30.79 -08 48 19.8 20.9 V G96 – Mt. Lemmon Survey MPS 283755
2009 03 31.38343 13 22 30.21 -08 48 17.1 21.2 V G96 – Mt. Lemmon Survey MPS 283755
2009 04 26.26326 13 03 00.64 -07 09 36.0 20.8 V G96 – Mt. Lemmon Survey MPS 285706
2009 04 26.26946 13 03 00.32 -07 09 34.9 21.7 V G96 – Mt. Lemmon Survey MPS 285706
2009 04 26.27566 13 03 00.10 -07 09 33.0 20.1 V G96 – Mt. Lemmon Survey MPS 285706
2009 04 26.28257 13 02 59.74 -07 09 32.2 21.1 V G96 – Mt. Lemmon Survey MPS 285706
2011 09 26.40706 00 28 49.11 +02 11 32.4 20.1 V G96 – Mt. Lemmon Survey MPS 392673
2011 09 26.41554 00 28 48.68 +02 11 30.4 20.1 V G96 – Mt. Lemmon Survey MPS 392673
2011 09 26.42403 00 28 48.32 +02 11 28.2 20.1 V G96 – Mt. Lemmon Survey MPS 392673
2011 09 26.42663 00 28 48.363 +02 11 28.49 20.7 w F51 – Pan-STARRS 1, Haleakala MPS 392673
2011 09 26.43258 00 28 47.89 +02 11 26.0 20.3 V G96 – Mt. Lemmon Survey MPS 392673
2011 09 26.44065 00 28 47.688 +02 11 25.17 20.6 w F51 – Pan-STARRS 1, Haleakala MPS 392673
2011 09 26.46097 00 28 46.700 +02 11 20.16 20.7 w F51 – Pan-STARRS 1, Haleakala MPS 392673
2011 09 26.47541 00 28 46.000 +02 11 16.63 20.6 w F51 – Pan-STARRS 1, Haleakala MPS 392673
2011 09 28.32927 00 27 19.29 +02 03 45.7 20.3 V G96 – Mt. Lemmon Survey MPS 392673
2011 09 28.33732 00 27 18.93 +02 03 43.7 20.0 V G96 – Mt. Lemmon Survey MPS 392673
2011 09 28.34542 00 27 18.50 +02 03 41.6 20.2 V G96 – Mt. Lemmon Survey MPS 392673
2011 09 28.35340 00 27 18.10 +02 03 39.7 19.8 V G96 – Mt. Lemmon Survey MPS 392673
2011 10 03.31550 00 23 25.26 +01 43 36.9 20.3 V G96 – Mt. Lemmon Survey MPS 394233
2011 10 03.31902 00 23 25.08 +01 43 36.1 20.4 V G96 – Mt. Lemmon Survey MPS 394233
2011 10 03.32250 00 23 24.86 +01 43 35.1 20.2 V G96 – Mt. Lemmon Survey MPS 394233
2011 10 03.32600 00 23 24.72 +01 43 34.6 20.2 V G96 – Mt. Lemmon Survey MPS 394233
2011 10 03.38138 00 23 22.05 +01 43 20.8 20.1 V G96 – Mt. Lemmon Survey MPS 394233
2011 10 03.38553 00 23 21.87 +01 43 19.8 20.1 V G96 – Mt. Lemmon Survey MPS 394233
2011 10 03.38966 00 23 21.66 +01 43 18.9 20.2 V G96 – Mt. Lemmon Survey MPS 394233
2011 10 03.39383 00 23 21.48 +01 43 17.9 20.2 V G96 – Mt. Lemmon Survey MPS 394233
2011 10 16.15507 00 13 57.25 +00 55 51.1 21.4 V 691 – Steward Observatory, Kitt Peak-Spacewatch MPS 396203
2011 10 16.22261 00 13 54.40 +00 55 37.6 20.8 V 691 – Steward Observatory, Kitt Peak-Spacewatch MPS 396203
2011 10 16.29010 00 13 51.55 +00 55 24.6 20.6 V 691 – Steward Observatory, Kitt Peak-Spacewatch MPS 396203
2011 10 22.19692 00 10 08.36 +00 37 32.1 20.8 V G96 – Mt. Lemmon Survey MPS 398103
2011 10 22.20396 00 10 08.07 +00 37 31.1 20.9 V G96 – Mt. Lemmon Survey MPS 398103
2011 10 22.21094 00 10 07.82 +00 37 30.0 20.4 V G96 – Mt. Lemmon Survey MPS 398103
2011 10 22.21790 00 10 07.57 +00 37 28.9 20.7 V G96 – Mt. Lemmon Survey MPS 398103
2011 10 24.08914 00 09 04.00 +00 32 34.0 21.1 V 691 – Steward Observatory, Kitt Peak-Spacewatch MPS 398103
2011 10 24.11053 00 09 03.22 +00 32 30.7 20.6 V 691 – Steward Observatory, Kitt Peak-Spacewatch MPS 398103
2011 10 24.16063 00 09 01.56 +00 32 23.1 20.7 V 691 – Steward Observatory, Kitt Peak-Spacewatch MPS 398103
2014 02 28.40892 11 58 44.971 +01 53 41.51 21.1 w F51 – Pan-STARRS 1, Haleakala MPS 505254
2014 02 28.42142 11 58 44.458 +01 53 44.51 21.0 w F51 – Pan-STARRS 1, Haleakala MPS 505254
2014 02 28.43378 11 58 43.946 +01 53 47.33 21.0 w F51 – Pan-STARRS 1, Haleakala MPS 505254
2014 02 28.44616 11 58 43.434 +01 53 50.14 21.0 w F51 – Pan-STARRS 1, Haleakala MPS 505254
2014 03 05.48687 11 55 13.094 +02 14 05.57 20.9 w F51 – Pan-STARRS 1, Haleakala MPS 505254
2014 03 05.49921 11 55 12.543 +02 14 08.79 20.8 w F51 – Pan-STARRS 1, Haleakala MPS 505254
2014 03 05.51155 11 55 12.000 +02 14 11.81 20.8 w F51 – Pan-STARRS 1, Haleakala MPS 505254
2014 03 05.52397 11 55 11.454 +02 14 14.96 20.9 w F51 – Pan-STARRS 1, Haleakala MPS 505254
2014 03 12.29814 11 50 08.74 +02 42 59.6 21.1 V 691 – Steward Observatory, Kitt Peak-Spacewatch MPS 506226
2014 03 12.31585 11 50 07.93 +02 43 04.2 20.7 V 691 – Steward Observatory, Kitt Peak-Spacewatch MPS 506226
2014 03 12.33357 11 50 07.10 +02 43 08.7 21.1 V 691 – Steward Observatory, Kitt Peak-Spacewatch MPS 506226
2014 04 09.22251 11 30 04.13 +04 30 03.1 20.2 V G96 – Mt. Lemmon Survey MPS 510959
2014 04 09.22976 11 30 03.81 +04 30 04.9 21.3 V G96 – Mt. Lemmon Survey MPS 510959
2014 04 09.23700 11 30 03.55 +04 30 05.8 20.8 V G96 – Mt. Lemmon Survey MPS 510959
2014 04 09.24424 11 30 03.23 +04 30 07.3 21.9 V G96 – Mt. Lemmon Survey MPS 510959
2014 04 25.25582 11 22 56.04 +05 00 46.4 21.9 V G96 – Mt. Lemmon Survey MPS 512314
2014 04 25.26138 11 22 55.93 +05 00 46.3 21.2 V G96 – Mt. Lemmon Survey MPS 512314
2014 04 25.26694 11 22 55.83 +05 00 46.7 20.6 V G96 – Mt. Lemmon Survey MPS 512314
2014 04 25.27250 11 22 55.71 +05 00 46.8 21.2 V G96 – Mt. Lemmon Survey MPS 512314
2015 05 15.48280 16 43 06.041 -25 23 33.36 20.7 w F51 – Pan-STARRS 1, Haleakala MPS 608411
2015 05 15.49375 16 43 05.502 -25 23 33.14 21.4 w F51 – Pan-STARRS 1, Haleakala MPS 608411
2015 05 18.49286 16 40 44.175 -25 21 51.02 21.0 w F51 – Pan-STARRS 1, Haleakala MPS 608411
2015 05 18.50402 16 40 43.613 -25 21 50.52 20.9 w F51 – Pan-STARRS 1, Haleakala MPS 608411
2015 05 18.51522 16 40 43.073 -25 21 50.15 20.7 w F51 – Pan-STARRS 1, Haleakala MPS 608411
2015 06 11.36185 16 20 18.706 -24 51 40.18 20.8 w F51 – Pan-STARRS 1, Haleakala MPS 611378
